TimePST,TemperatureF,Dew PointF,Humidity,Sea Level PressureIn,VisibilityMPH,Wind Direction,Wind SpeedMPH,Gust SpeedMPH,PrecipitationIn,Events,Conditions,WindDirDegrees,DateUTC
12:50 AM,25.2,25.0,99,30.03,1.5,South,2.3,-,N/A,,Clear,190,2012-12-13 08:50:00
1:50 AM,27.1,27.1,100,30.04,0.1,Calm,Calm,-,N/A,Fog,Light Freezing Fog,0,2012-12-13 09:50:00
2:50 AM,29.7,29.7,100,30.05,0.1,Calm,Calm,-,N/A,Fog,Light Freezing Fog,0,2012-12-13 10:50:00
3:50 AM,30.4,30.4,100,30.05,0.1,SW,2.3,-,N/A,Fog,Light Freezing Fog,220,2012-12-13 11:50:00
4:50 AM,30.4,30.4,100,30.06,0.1,SW,3.5,-,N/A,Fog,Light Freezing Fog,230,2012-12-13 12:50:00
5:50 AM,30.7,30.7,100,30.07,0.1,South,4.6,-,N/A,Fog,Light Freezing Fog,170,2012-12-13 13:50:00
6:50 AM,30.9,30.9,100,30.07,0.2,South,3.5,-,N/A,Fog,Light Freezing Fog,180,2012-12-13 14:50:00
7:50 AM,31.5,31.5,100,30.07,0.2,South,3.5,-,N/A,Fog,Light Freezing Fog,190,2012-12-13 15:50:00
8:50 AM,31.6,31.6,100,30.08,1.0,SSE,2.3,-,0.00,,Light Freezing Drizzle,160,2012-12-13 16:50:00
9:50 AM,31.6,31.5,99,30.08,1.0,SW,3.5,-,N/A,,Light Freezing Drizzle,220,2012-12-13 17:50:00
10:50 AM,31.6,31.5,99,30.07,2.0,South,4.6,-,N/A,,Light Freezing Drizzle,170,2012-12-13 18:50:00
11:50 AM,32.2,31.8,99,30.06,3.0,South,3.5,-,0.00,,Light Drizzle,180,2012-12-13 19:50:00
12:50 PM,32.2,31.6,98,30.04,2.0,SSE,2.3,-,N/A,,Overcast,160,2012-12-13 20:50:00
1:50 PM,32.9,31.8,96,30.01,2.0,SSE,4.6,-,0.00,,Light Drizzle,150,2012-12-13 21:50:00
2:50 PM,32.9,31.3,94,29.99,1.0,East,4.6,-,0.00,,Light Drizzle,80,2012-12-13 22:50:00
3:50 PM,32.4,31.6,97,29.96,0.8,South,4.6,-,0.00,,Light Drizzle,170,2012-12-13 23:50:00
4:50 PM,32.2,30.7,94,29.94,0.8,East,3.5,-,0.00,,Light Drizzle,100,2012-12-14 00:50:00
5:50 PM,32.4,31.1,95,29.93,0.8,NNE,3.5,-,0.00,,Light Drizzle,20,2012-12-14 01:50:00
6:50 PM,32.2,30.4,93,29.92,0.8,North,5.8,-,0.00,,Light Drizzle,350,2012-12-14 02:50:00
10:50 PM,31.8,31.6,99,29.91,6.0,NNW,4.6,-,N/A,,Overcast,340,2012-12-14 06:50:00
11:50 PM,31.8,30.7,96,29.90,6.0,WNW,4.6,-,N/A,,Overcast,300,2012-12-14 07:50:00